WB7HPF Weather Reports


time (UTC)temp
C
wind
direction
speed
KPH
gust
KPH
rain 1hr
cm
rain 24hr
cm
rain mn
cm
humidity
%
barometer
mb
20260504001346 26 294 0.0 3.2 0.00 0.00 0.00 41 1008.7
20260504000346 26 301 1.6 4.8 0.00 0.00 0.00 39 1008.7
20260503234344 26 292 1.6 3.2 0.00 0.00 0.00 38 1008.9
20260503233344 26 299 1.6 6.4 0.00 0.00 0.00 37 1009.0
20260503232344 27 142 0.0 3.2 0.00 0.00 0.00 37 1009.0
20260503231344 26 300 0.0 3.2 0.00 0.00 0.00 37 1009.2
20260503230342 26 145 1.6 6.4 0.00 0.00 0.00 37 1009.3
20260503225342 26 296 1.6 6.4 0.00 0.00 0.00 36 1009.5
20260503224340 26 306 1.6 6.4 0.00 0.00 0.00 38 1009.6
20260503223340 25 313 0.0 3.2 0.00 0.00 0.00 37 1009.8
20260503222337 25 309 1.6 6.4 0.00 0.00 0.00 40 1010.0
20260503221337 25 311 1.6 6.4 0.00 0.00 0.00 41 1010.1
20260503220338 25 306 0.0 6.4 0.00 0.00 0.00 41 1010.3
20260503215338 25 313 1.6 6.4 0.00 0.00 0.00 41 1010.4
20260503214337 25 281 1.6 6.4 0.00 0.00 0.00 43 1010.5
20260503213338 25 306 1.6 8.0 0.00 0.00 0.00 43 1010.6
20260503212338 25 311 1.6 8.0 0.00 0.00 0.00 41 1010.6
20260503211339 25 314 0.0 8.0 0.00 0.00 0.00 46 1010.7
20260503210338 24 301 0.0 3.2 0.00 0.00 0.00 47 1010.8
20260503205338 24 303 0.0 8.0 0.00 0.00 0.00 46 1010.8
20260503204335 23 286 1.6 8.0 0.00 0.00 0.00 44 1010.9
20260503202335 24 294 1.6 6.4 0.00 0.00 0.00 42 1010.9
20260503201335 23 304 1.6 8.0 0.00 0.00 0.00 43 1011.0
20260503195336 22 327 1.6 8.0 0.00 0.00 0.00 45 1011.3
20260503194333 22 314 1.6 6.4 0.00 0.00 0.00 48 1011.5
20260503193331 22 253 0.0 6.4 0.00 0.00 0.00 49 1011.6
20260503190331 22 304 1.6 8.0 0.00 0.00 0.00 48 1011.8
20260503184332 21 292 1.6 8.0 0.00 0.00 0.00 50 1012.1
20260503183331 21 307 1.6 8.0 0.00 0.00 0.00 49 1012.2
20260503182331 21 295 1.6 6.4 0.00 0.00 0.00 49 1012.3
20260503175330 20 332 0.0 6.4 0.00 0.00 0.00 55 1012.6
20260503174331 20 273 0.0 6.4 0.00 0.00 0.00 55 1012.6
20260503173331 20 311 0.0 3.2 0.00 0.00 0.00 56 1012.7
20260503172333 19 304 0.0 3.2 0.00 0.00 0.00 57 1012.7
20260503170331 18 307 0.0 3.2 0.00 0.00 0.00 59 1012.8
20260503150331 19 303 1.6 8.0 0.00 0.00 0.00 57 1013.2
20260503131343 16 271 1.6 8.0 0.00 0.00 0.00 57 1012.7
20260503130330 15 17 0.0 6.4 0.00 0.00 0.00 60 1012.7
20260503110330 13 333 0.0 0.0 0.00 0.00 0.00 66 1012.8
20260503090323 15 307 0.0 3.2 0.00 0.00 0.00 61 1012.5
20260503081323 15 261 1.6 11.3 0.00 0.00 0.00 63 1012.5
20260503080324 15 331 0.0 3.2 0.00 0.00 0.00 63 1012.4
20260503072322 15 276 0.0 6.4 0.00 0.00 0.00 61 1012.3
20260503071321 15 241 0.0 3.2 0.00 0.00 0.00 61 1012.3
20260503070322 15 262 0.0 1.6 0.00 0.00 0.00 61 1012.3
20260503060319 15 199 0.0 0.0 0.00 0.00 0.00 61 1012.3
20260503054320 16 199 0.0 1.6 0.00 0.00 0.00 60 1012.2
20260503053321 16 199 0.0 3.2 0.00 0.00 0.00 59 1012.3
20260503052319 16 200 0.0 1.6 0.00 0.00 0.00 59 1012.4
20260503051321 16 200 0.0 1.6 0.00 0.00 0.00 57 1012.3
20260503050319 17 348 0.0 0.0 0.00 0.00 0.00 57 1012.3
20260503044319 18 347 0.0 0.0 0.00 0.00 0.00 54 1012.3
20260503042321 18 161 0.0 1.6 0.00 0.00 0.00 49 1012.1
20260503041320 18 241 0.0 1.6 0.00 0.00 0.00 49 1012.0
20260503040316 18 140 0.0 0.0 0.00 0.00 0.00 52 1012.0
20260503035317 18 323 0.0 0.0 0.00 0.00 0.00 55 1011.8
20260503034316 18 323 0.0 0.0 0.00 0.00 0.00 55 1011.8
20260503033316 19 323 0.0 0.0 0.00 0.00 0.00 53 1011.7
20260503032312 20 323 0.0 0.0 0.00 0.00 0.00 52 1011.7
20260503031313 20 323 0.0 0.0 0.00 0.00 0.00 51 1011.6
20260503025313 21 323 0.0 0.0 0.00 0.00 0.00 47 1011.5
20260503023313 23 323 0.0 0.0 0.00 0.00 0.00 41 1011.5
20260503022313 23 323 0.0 3.2 0.00 0.00 0.00 41 1011.5
20260503021326 25 323 0.0 3.2 0.00 0.00 0.00 40 1011.6
20260503020312 25 330 0.0 1.6 0.00 0.00 0.00 35 1011.7
20260503015314 25 275 0.0 3.2 0.00 0.00 0.00 37 1011.8
20260503014315 25 288 0.0 6.4 0.00 0.00 0.00 35 1011.8
20260503013317 25 313 0.0 3.2 0.00 0.00 0.00 39 1011.9
20260503012310 25 298 1.6 6.4 0.00 0.00 0.00 34 1012.0
20260503011312 25 311 1.6 9.7 0.00 0.00 0.00 35 1012.1
20260503005310 25 313 1.6 6.4 0.00 0.00 0.00 39 1012.1
20260503004309 25 296 1.6 6.4 0.00 0.00 0.00 37 1012.1
20260503003309 25 306 1.6 6.4 0.00 0.00 0.00 38 1012.1
20260503002308 25 306 3.2 6.4 0.00 0.00 0.00 38 1012.2